Aérodrome :
LOGIN :

S'inscrire | Disclaimer

   EN    FR    IT 

 










Légende :    VFR   VFR Marginal   IFR   IFR Intensif   IFR Très Intensif
Visi : 
Plafond : 
>= 8 km
>= 3000ft
5 à 8 km
1000 à 3000 ft
1500m à 5 km
500 à 1000 ft
800 à 1500m
200 à 500 ft
< 800m
< 200 ft
Symboles :   Orages  Brouillard  Fortes neiges  Fortes précipitations  Vent > 20 kt
SIGMETs :   Divers  Orages  Givrage  Turbulence  Onde Orograph.  Cendres Volcan.






- Altitude de l'aérodrome : 52 ft
- Code IATA : IOM


EGNS - Isle of Man

DERNIER METAR :
  • 011050Z 25001KT 9999 FEW020 08/06 Q1028 NOSIG

METARs EXPIRÉS :
  • 011020Z VRB03KT 9999 FEW020 BKN047 08/05 Q1028 NOSIG
  • 010950Z 33001KT 9999 -RA FEW020 07/05 Q1028 NOSIG
  • 010920Z VRB03KT 9999 -RA FEW020 06/05 Q1028 NOSIG
  • 010850Z VRB03KT 9999 FEW020 07/04 Q1028 NOSIG
  • 010820Z 31002KT 9999 FEW022 06/04 Q1028 NOSIG

TAF TAF EGNS
Valide du 01 à 09h jusqu'au 01 à 18h UTC


010800Z 0109/0118 27005KT 9999 FEW020 BKN030
PROB30
TEMPO 0114/0118 BKN014



MET'MAP, la Météo Aéronautique d'un coup d'oeil ! - Copyright ORBIFLY Décembre 2007 - Disclaimer

ORBIFLY MET'MAP TEAM :

Programmation & Développement : Alexandra Zaïnal
Sur une idée originale de : Baudouin d'Aumeries
Assistance à la programmation : Marc-Olivier Méhu
Soutien technique & logistique : Manuel Goepfert

Contact : metmap@orbifly.com




SOURCES & CREDITS :

   NOAA